Météo par heure à Alhimkovo

Ce jour, 13 Mai, Jeudi

Heure Température Précipitation Vent Pression Humidité
00:00 +13°C° 0 mm 3 m/s 748 mmHg 93%
01:00 +12°C° 0 mm 3 m/s 748 mmHg 94%
02:00 +12°C° 0 mm 3 m/s 748 mmHg 95%
03:00 +12°C° 0 mm 3 m/s 748 mmHg 95%
04:00 +12°C° 0 mm 2 m/s 748 mmHg 95%
05:00 +12°C° 0 mm 2 m/s 748 mmHg 95%
06:00 +13°C° 0 mm 2 m/s 748 mmHg 88%
07:00 +12°C° 0 mm 3 m/s 748 mmHg 80%
08:00 +13°C° 0 mm 3 m/s 748 mmHg 73%
09:00 +14°C° 0 mm 3 m/s 748 mmHg 65%
10:00 +17°C° 0 mm 3 m/s 748 mmHg 56%
11:00 +18°C° 0 mm 3 m/s 748 mmHg 48%
12:00 +18°C° 0 mm 3 m/s 747 mmHg 47%
13:00 +19°C° 0 mm 3 m/s 747 mmHg 46%
14:00 +20°C° 0 mm 4 m/s 746 mmHg 44%
15:00 +19°C° 0 mm 4 m/s 746 mmHg 52%
16:00 +17°C° 0 mm 4 m/s 745 mmHg 59%
17:00 +15°C° 0 mm 4 m/s 745 mmHg 66%
18:00 +14°C° 0.1 mm 3 m/s 745 mmHg 73%
19:00 +13°C° 0.1 mm 2 m/s 745 mmHg 80%
20:00 +12°C° 0.1 mm 2 m/s 745 mmHg 87%
21:00 +10°C° 0 mm 2 m/s 745 mmHg 90%
22:00 +10°C° 0 mm 2 m/s 745 mmHg 93%
23:00 +9°C° 0 mm 2 m/s 745 mmHg 96%

Demain, 14 Mai, Vendredi

Heure Température Précipitation Vent Pression Humidité
00:00 +9°C° 0 mm 2 m/s 745 mmHg 96%
01:00 +9°C° 0 mm 2 m/s 745 mmHg 97%
02:00 +8°C° 0 mm 2 m/s 745 mmHg 97%
03:00 +9°C° 0 mm 2 m/s 746 mmHg 95%
04:00 +9°C° 0 mm 2 m/s 746 mmHg 94%
05:00 +9°C° 0 mm 2 m/s 746 mmHg 93%
06:00 +12°C° 0 mm 2 m/s 746 mmHg 85%
07:00 +13°C° 0 mm 3 m/s 746 mmHg 76%
08:00 +14°C° 0 mm 3 m/s 746 mmHg 68%
09:00 +16°C° 0 mm 3 m/s 746 mmHg 63%
10:00 +18°C° 0 mm 3 m/s 746 mmHg 58%
11:00 +19°C° 0 mm 4 m/s 746 mmHg 52%
12:00 +19°C° 0 mm 4 m/s 746 mmHg 51%
13:00 +20°C° 0 mm 4 m/s 745 mmHg 50%
14:00 +21°C° 0 mm 4 m/s 745 mmHg 49%
15:00 +20°C° 0.4 mm 4 m/s 745 mmHg 58%
16:00 +19°C° 0.4 mm 4 m/s 744 mmHg 67%
17:00 +18°C° 0.4 mm 4 m/s 744 mmHg 76%
18:00 +17°C° 0.4 mm 4 m/s 743 mmHg 81%
19:00 +16°C° 0.4 mm 3 m/s 743 mmHg 87%
20:00 +14°C° 0.4 mm 3 m/s 743 mmHg 93%
21:00 +13°C° 0 mm 3 m/s 742 mmHg 94%
22:00 +13°C° 0 mm 2 m/s 742 mmHg 95%
23:00 +12°C° 0 mm 2 m/s 742 mmHg 97%

Après-demain, 15 Mai, Samedi

Heure Température Précipitation Vent Pression Humidité
00:00 +12°C° 0 mm 2 m/s 741 mmHg 97%
01:00 +12°C° 0 mm 2 m/s 741 mmHg 98%
02:00 +12°C° 0 mm 2 m/s 741 mmHg 98%
03:00 +13°C° 0.1 mm 2 m/s 740 mmHg 98%
04:00 +14°C° 0.1 mm 2 m/s 740 mmHg 97%
05:00 +13°C° 0.1 mm 3 m/s 740 mmHg 97%
06:00 +16°C° 0.1 mm 3 m/s 740 mmHg 93%
07:00 +17°C° 0.1 mm 3 m/s 740 mmHg 89%
08:00 +18°C° 0.1 mm 4 m/s 740 mmHg 85%
09:00 +19°C° 0.2 mm 4 m/s 740 mmHg 78%
10:00 +20°C° 0.2 mm 4 m/s 740 mmHg 72%
11:00 +22°C° 0.2 mm 5 m/s 740 mmHg 66%
12:00 +22°C° 0.4 mm 5 m/s 739 mmHg 64%
13:00 +22°C° 0.4 mm 5 m/s 739 mmHg 63%
14:00 +22°C° 0.4 mm 5 m/s 739 mmHg 62%
15:00 +21°C° 0.3 mm 5 m/s 739 mmHg 67%
16:00 +20°C° 0.3 mm 5 m/s 739 mmHg 71%
17:00 +17°C° 0.3 mm 5 m/s 739 mmHg 76%
18:00 +16°C° 0 mm 5 m/s 739 mmHg 79%
19:00 +15°C° 0 mm 5 m/s 740 mmHg 81%
20:00 +14°C° 0 mm 4 m/s 740 mmHg 84%
21:00 +13°C° 0 mm 4 m/s 740 mmHg 87%
22:00 +13°C° 0 mm 4 m/s 741 mmHg 90%
23:00 +12°C° 0 mm 3 m/s 741 mmHg 93%

16 Mai, Dimanche

Heure Température Précipitation Vent Pression Humidité
00:00 +12°C° 0 mm 3 m/s 741 mmHg 95%
01:00 +12°C° 0 mm 2 m/s 741 mmHg 96%
02:00 +12°C° 0 mm 2 m/s 742 mmHg 97%
03:00 +12°C° 0 mm 2 m/s 742 mmHg 96%
04:00 +12°C° 0 mm 1 m/s 742 mmHg 95%
05:00 +13°C° 0 mm 1 m/s 743 mmHg 93%
06:00 +14°C° 0 mm 1 m/s 743 mmHg 86%
07:00 +16°C° 0 mm 1 m/s 743 mmHg 79%
08:00 +19°C° 0 mm 1 m/s 743 mmHg 71%
09:00 +19°C° 0.8 mm 1 m/s 743 mmHg 70%
10:00 +20°C° 0.8 mm 1 m/s 743 mmHg 69%
11:00 +21°C° 0.8 mm 1 m/s 743 mmHg 68%
12:00 +20°C° 1.6 mm 1 m/s 743 mmHg 69%
13:00 +20°C° 1.6 mm 1 m/s 743 mmHg 70%
14:00 +20°C° 1.6 mm 1 m/s 743 mmHg 71%
15:00 +20°C° 1.1 mm 1 m/s 744 mmHg 74%
16:00 +20°C° 1.1 mm 1 m/s 744 mmHg 76%
17:00 +20°C° 1.1 mm 1 m/s 744 mmHg 78%
18:00 +18°C° 0.2 mm 1 m/s 744 mmHg 82%
19:00 +16°C° 0.2 mm 1 m/s 744 mmHg 85%
20:00 +15°C° 0.2 mm 1 m/s 745 mmHg 88%
21:00 +14°C° 0 mm 1 m/s 745 mmHg 90%
22:00 +14°C° 0 mm 1 m/s 745 mmHg 91%
23:00 +13°C° 0 mm 1 m/s 745 mmHg 92%

17 Mai, Lundi

Heure Température Précipitation Vent Pression Humidité
00:00 +13°C° 0 mm 1 m/s 745 mmHg 93%
01:00 +13°C° 0 mm 1 m/s 746 mmHg 93%
02:00 +12°C° 0 mm 1 m/s 746 mmHg 93%
03:00 +13°C° 0 mm 1 m/s 746 mmHg 93%
04:00 +13°C° 0 mm 1 m/s 746 mmHg 93%
05:00 +13°C° 0 mm 1 m/s 746 mmHg 93%
06:00 +15°C° 0 mm 1 m/s 746 mmHg 89%
07:00 +16°C° 0 mm 2 m/s 746 mmHg 84%
08:00 +18°C° 0 mm 2 m/s 746 mmHg 80%
09:00 +19°C° 0 mm 2 m/s 746 mmHg 73%
10:00 +20°C° 0 mm 2 m/s 746 mmHg 65%
11:00 +22°C° 0 mm 3 m/s 746 mmHg 58%
12:00 +22°C° 0 mm 3 m/s 746 mmHg 55%
13:00 +24°C° 0 mm 3 m/s 746 mmHg 53%
14:00 +25°C° 0 mm 3 m/s 745 mmHg 50%
15:00 +23°C° 0 mm 4 m/s 745 mmHg 54%
16:00 +23°C° 0 mm 4 m/s 745 mmHg 58%
17:00 +23°C° 0 mm 4 m/s 744 mmHg 62%
18:00 +21°C° 0.1 mm 4 m/s 744 mmHg 71%
19:00 +20°C° 0.1 mm 4 m/s 744 mmHg 79%
20:00 +18°C° 0.1 mm 4 m/s 744 mmHg 87%
21:00 +18°C° 0 mm 4 m/s 743 mmHg 89%
22:00 +17°C° 0 mm 4 m/s 743 mmHg 91%
23:00 +17°C° 0 mm 3 m/s 743 mmHg 93%

18 Mai, Mardi

Heure Température Précipitation Vent Pression Humidité
00:00 +17°C° 0 mm 3 m/s 743 mmHg 93%
01:00 +16°C° 0 mm 3 m/s 743 mmHg 94%
02:00 +16°C° 0 mm 3 m/s 742 mmHg 94%
03:00 +17°C° 0 mm 4 m/s 742 mmHg 92%
04:00 +17°C° 0 mm 4 m/s 742 mmHg 89%
05:00 +17°C° 0 mm 4 m/s 742 mmHg 87%
06:00 +19°C° 0 mm 4 m/s 742 mmHg 79%
07:00 +20°C° 0 mm 5 m/s 742 mmHg 71%
08:00 +22°C° 0 mm 5 m/s 742 mmHg 63%
09:00 +25°C° 0 mm 5 m/s 742 mmHg 57%
10:00 +26°C° 0 mm 5 m/s 742 mmHg 50%
11:00 +28°C° 0 mm 6 m/s 742 mmHg 44%
12:00 +28°C° 0 mm 6 m/s 741 mmHg 44%
13:00 +28°C° 0 mm 5 m/s 741 mmHg 44%
14:00 +29°C° 0 mm 5 m/s 741 mmHg 44%
15:00 +28°C° 0 mm 5 m/s 741 mmHg 49%
16:00 +26°C° 0 mm 5 m/s 741 mmHg 54%
17:00 +25°C° 0 mm 5 m/s 741 mmHg 59%
18:00 +22°C° 0.6 mm 4 m/s 742 mmHg 68%
19:00 +19°C° 0.6 mm 3 m/s 742 mmHg 77%
20:00 +17°C° 0.6 mm 2 m/s 743 mmHg 87%
21:00 +16°C° 0 mm 2 m/s 743 mmHg 89%
22:00 +15°C° 0 mm 2 m/s 743 mmHg 92%
23:00 +15°C° 0 mm 2 m/s 743 mmHg 95%
Voir plus

Nous avons besoin de votre consentement

Meteoprog et ses fournisseurs de services peuvent stocker et accéder à des données personnelles telles que des cookies, des identifiants d'appareils ou d'autres technologies similaires sur votre appareil et traiter ces données pour personnaliser le contenu et les publicités, ainsi que pour fournir des fonctionnalités de médias sociaux et analyser le trafic.

  • Stocker et/ou accéder à des informations sur votre appareil

    Des cookies, des identifiants d'appareils ou d'autres informations peuvent être stockés ou accessibles sur votre appareil aux fins indiquées ci-dessus.

  • Annonces et contenus personnalisés, mesure des annonces et des contenus, connaissance de l'audience et développement de produits

    Les annonces et le contenu peuvent être personnalisés en fonction d'un profil. D'autres données peuvent être ajoutées pour mieux personnaliser les annonces et le contenu. Les performances des publicités et du contenu peuvent être mesurées. Il est possible d'obtenir des informations sur le public qui a vu les publicités et le contenu. Ces données peuvent être utilisées pour développer ou améliorer l'expérience de l'utilisateur, les systèmes et les logiciels.

En cliquant sur "J'accepte", vous autorisez l'utilisation de cookies, des identifiants d'appareils, des balises web ou d'autres technologies similaires. Vos paramètres peuvent être modifiés dans le navigateur de votre appareil.

Dans certains cas, des intérêts légitimes peuvent être invoqués plutôt qu'un consentement. Vous pouvez en savoir plus à ce sujet dans notre Politique de confidentialité et de cookies.